Погода в Караганде

Погода в Караганде : погода сейчас, прогноз погоды и архив. Всё, что Вы хотите узнать о погоде в Караганде!

Поиск расширенной информации на нашем сайте:

Другие новости

Новости СМИ2

Главная страница сайта

Новости сайта

03.07.2017

Напоминаем, что на нашем специализированном сайте Метеоцентр.Азия вы можете получить высокодетализированные автоматические прогнозы погоды по пунктам России, СНГ и мира в авиационном формате (включающие направление и скорость ветра, видимость, явления погоды, количество и форму облачности, нижнюю и верхнюю границу облачности).


Погода в Караганде - сегодня

Время (UTC), дата Ветер
(°,м/с) 
Видим.   Явления Облачность Т
(°С)
Тd
(°С)
f(%) Тe
(°С)
Pmin
(гПа)
dP
(гПа)
Po
(мм)
O2
(г/м3)
Тmin Tmax R s Состояние
почвы
18 14.02.18 210 (ЮЗ) 10 км  слаб. снег  8/0 средняя 
[As op]
-20.2 -23.3 76 -23  1023.6  0.3  713  312    -9.6  0.0     
21 14.02.18 210 (ЮЗ) 10 км  слаб. снег  8/0 средняя 
[As op]
-20.5 -23.8 75 -23  1024.1  0.4  713  312           
00 15.02.18 220 (ЮЗ) 10 км  слаб. снег  10/0 средняя 
[As op]
-22.2 -25.4 75 -27  1024.9  0.3  713  315           
03 15.02.18 220 (ЮЗ) 10 км  слаб. снег  8/0 средняя 
[As op]
-21.2 -24.5 75 -26  1025.4  0.7  714  314        26  неравномерный
сухой снег
100% 
06 15.02.18 240 (ЮЗ) 10 км  слаб. снег  8/0 средняя 
[As trans]
-19.5 -23.9 68 -26  1026.8  1.8  715  312  -22.4    0.6     
09 15.02.18 220 (ЮЗ) 10 км  слаб. снег  5/3 600 м средняя 
[Frnb|As trans]
-17.8 -22.3 68 -24  1028.4  717  311           
12 15.02.18 240 (ЮЗ) 10 км  слаб. снег  9/0 средняя 
[As op]
-18.1 -21.9 72 -24  1031.3  2.6  719  312           
15 15.02.18 240 (ЮЗ) 10 км  слаб. снег  10/10 300 м 
[Frnb|Ns]
-18.9 -22.1 76 -23  1033.9  2.2  720  313    -17.5  0.5     
18 15.02.18 250 (З) 10 км  слаб. снег  10/8 300 м средняя 
[Frnb|As op]
-19.8 -23.2 74 -24  1035.8  1.5  722  315    -17.5  0.5     
21 15.02.18 230 (ЮЗ) 10 км  слаб. снег  10/8 300 м средняя 
[Frnb|As op]
-20.2 -23.6 74 -25  1037  722  316           
00 16.02.18 240 (ЮЗ) 10 км  слаб. снег  10/8 300 м средняя 
[Frnb|As op]
-19.6 -22.9 75 -25  1037.9  723  315           
03 16.02.18 210 (ЮЗ) 10 км  слаб. снег  10/0 средняя 
[As op]
-20.1 -23.5 74 -26  1039.8  1.6  724  317        26  неравномерный
сухой снег
100% 
06 16.02.18 230 (ЮЗ) 10 км  слаб. снег  8/0 средняя 
[As op]
-18.4 -22.7 69 -24  1041.1  1.7  726  315  -20.2    0.5     
09 16.02.18 230 (ЮЗ) 20000 м  {снег}  4/0 средняя, верхняя 
[As trans|Ci fib]
-15.8 -20.5 67 -20  1041.1  0.8  726  312           
12 16.02.18 230 (ЮЗ) 20000 м  {снег}  6/0 верхняя 
[Ci fib]
-17.2 -20.7 74 -21  1042.7  727  314           
15 16.02.18 220 (ЮЗ) 20000 м    6/0 средняя, верхняя 
[As trans|Ci fib]
-20.3 -23.3 77 -23  1044.7  728  318    -15.6  0.0     
18 16.02.18 тихо ()   20000 м    4/0 верхняя 
[Ci fib]
-22 -25.1 76 -22  1045.3  0.1  728  321    -15.6  0.0     
21 16.02.18 тихо ()   20000 м    ясно 
-23.3 -26.6 74 -23  1045.4  -0.3  728  322           
00 17.02.18 тихо ()   4000 м  дым  8/0 верхняя 
[Ci fib]
-24.3 -27.8 73 -24  1045.5  -0.2  727  323           
03 17.02.18 тихо ()   20000 м    4/0 верхняя 
[Ci fib]
-25.7 -29.4 71 -26  1046.4  0.4  728  325  -26      26  неравномерный
сухой снег
100% 
06 17.02.18 тихо ()   20000 м    5/0 верхняя 
[Ci fib]
-17.8 -21 76 -18  1043.9  728  315  -26         
09 17.02.18 190 (Ю) 20000 м    8/0 верхняя 
[Ci fib]
-14.9 -19.8 66 -15  1042.3  -0.7  727  311           
12 17.02.18 тихо ()   20000 м    3/0 верхняя 
[Ci fib]
-15.2 -20.5 64 -15  1042.1  -0.3  727  312           
15 17.02.18 тихо ()   20000 м    ясно 
-21.8 -25 75 -22  1044.6  0.5  727  320    -13.9       
18 17.02.18 140 (ЮВ) 20000 м    9/0 верхняя 
[Ci fib]
-21.5 -24.6 76 -22  1044.2  -0.3  727  320    -13.9       
Время (UTC), дата Ветер
(°,м/с) 
Видим.   Явления Облачность Т
(°С)
Тd
(°С)
f(%) Тe
(°С)
Pmin
(гПа)
dP
(гПа)
Po
(мм)
O2
(г/м3)
Тmin Tmax R s Состояние
почвы

Для получения пояснительной информации подведите курсор к названию столбца.

ПОГОДА в Караганде - архив

Всё, что Вы хотите узнать о погоде в Караганде - удобно и подробно!

Выберите нужную дату (начиная с 1 января 2015* года) и нажмите кнопку "Найти".
Будут отображены архивные сводки погоды по пункту Караганда, начиная с указанной даты.


Отображать данные в формате CSV (для использования в таблицах Excel)


Внимание! Наш архив погоды предназначен исключительно для личного некоммерческого использования в познавательных целях. Если Вам необходимы официальные справки о состоянии погоды (для производственных, юридических, коммерческих и т.п. целей), обращайтесь в органы Росгидромета.

*Примечание: данная дата относится к архиву по метеостанциям СССР (Россия, СНГ, Балтия).
Архив по метеостанциям Зарубежной Европы и Азии (кроме Китая) хранится 10 дней, по другим регионам земного шара (Китай, Африка, Америка, Австралия, Океания) - 1 день.

Караганда - район местоположения метеостанции


Название, широта, долгота, высота метеостанции:
Караганда (город) 49.8°ш. 73.2°д. 553 м над ур. моря [Казахстан]

Дополнительная информация

В oтличие oт бoльшинства пoгoдных сайтoв мы публикуем пoдрoбную метеoинфoрмацию в детальнoм прoфессиoнальнoм фoрмате.

Характеристики температуры и влажнoсти вoздуха измеряются на высoте 2 м в тени вдали oт зданий и деревьев.
Скoрoсть ветра измеряется на высoте 10 м (на урoвне рoста челoвека скoрoсть ветра ниже в 1.5-2 раза). Если метеoстанция нахoдится в гoрoде или в лесу, тo скoрoсть ветра занижена на 2-4 м/с пo сравнению с oткрытым местoм. Скoрoсть ветра над акватoриями крупных рек и oзёр, а также на вершинах хoлмoв на 2-5 м/с выше, чем в oбычных услoвиях.
Атмoсфернoе давление в разных тoчках местнoсти мoжет значительнo oтличаться oт давления на метеoстанции, в зависимoсти oт услoвий рельефа (при пoдъёме на 10 м давление пoнижается примернo на 1 мм рт.ст.).